SP9SVH-2 Weather Reports


time (UTC)temp
C
wind
direction
speed
KPH
gust
KPH
rain 1hr
cm
rain 24hr
cm
rain mn
cm
humidity
%
barometer
mb
20260905222631 15 226 0.0 6.4 0.00 0.08 0.00 6 1018.9
20260905220827 15 195 3.2 8.0 0.00 0.08 0.00 6 1019.1
20260905213530 16 236 1.6 4.8 0.00 0.08 0.08 5 1017.9
20260905211559 16 232 0.0 3.2 0.00 0.08 0.08 5 1017.8
20260905205827 16 246 1.6 3.2 0.00 0.08 0.08 5 1017.5
20260905204107 17 240 1.6 6.4 0.00 0.08 0.08 5 1017.8
20260905202254 17 255 0.0 4.8 0.00 0.08 0.08 5 1017.5
20260905200347 16 248 0.0 0.0 0.00 0.08 0.08 6 1017.2
20260905194635 15 222 0.0 0.0 0.00 0.08 0.08 6 1017.4
20260905192855 16 229 0.0 0.0 0.00 0.08 0.08 6 1017.1
20260905190939 16 229 0.0 0.0 0.00 0.08 0.08 6 1017.3
20260905185250 16 228 0.0 1.6 0.00 0.08 0.08 6 1017.1
20260905183419 16 218 0.0 0.0 0.00 0.08 0.08 6 1016.9
20260905181629 17 218 0.0 0.0 0.00 0.08 0.08 6 1016.9
20260905175749 16 218 0.0 0.0 0.00 0.08 0.08 6 1016.6
20260905173920 17 218 0.0 0.0 0.00 0.08 0.08 6 1016.3
20260905172055 17 218 0.0 0.0 0.00 0.08 0.08 6 1016.3
20260905170314 18 229 0.0 0.0 0.00 0.08 0.08 5 1016.1
20260905164449 19 228 0.0 1.6 0.00 0.08 0.08 5 1016.0
20260905162520 20 249 1.6 3.2 0.00 0.08 0.08 5 1015.9
20260905160615 21 290 3.2 4.8 0.00 0.08 0.08 5 1015.9
20260905154729 22 265 1.6 6.4 0.00 0.08 0.08 4 1015.8
20260905152955 22 209 6.4 12.9 0.00 0.08 0.08 4 1015.5
20260905151327 22 265 3.2 4.8 0.00 0.08 0.08 4 1015.5
20260905145330 21 206 3.2 6.4 0.00 0.08 0.08 5 1015.6
20260905143535 23 275 6.4 9.7 0.00 0.08 0.08 4 1015.6
20260905141647 22 178 1.6 9.7 0.00 0.08 0.08 4 1015.6
20260905135827 23 359 8.0 16.1 0.00 0.08 0.08 4 1015.5
20260905134113 21 236 1.6 12.9 0.00 0.08 0.08 4 1015.6
20260905132415 21 210 3.2 12.9 0.00 0.08 0.08 4 1015.6
20260905122947 21 232 1.6 12.9 0.00 0.08 0.08 5 1015.7
20260905121000 20 211 1.6 9.7 0.00 0.08 0.08 5 1015.6
20260905115111 21 289 1.6 6.4 0.00 0.08 0.08 5 1015.9
20260905113407 20 220 8.0 12.9 0.00 0.08 0.08 5 1015.9
20260905111516 20 276 1.6 14.5 0.00 0.08 0.08 5 1016.0
20260905105808 20 229 6.4 16.1 0.00 0.08 0.08 5 1015.9
20260905104109 20 217 4.8 17.7 0.00 0.08 0.08 6 1016.2
20260905102455 19 285 1.6 9.7 0.00 0.08 0.08 6 1016.1
20260905100850 18 225 0.0 9.7 0.00 0.08 0.08 6 1015.8
20260905094947 18 1 0.0 9.7 0.00 0.08 0.08 6 1015.9
20260905093327 17 258 1.6 3.2 0.00 0.08 0.08 7 1015.8
20260905091447 16 217 3.2 4.8 0.00 0.08 0.08 7 1015.9
20260905085835 16 235 0.0 3.2 0.00 0.08 0.08 7 1015.9
20260905084147 16 244 1.6 8.0 0.00 0.08 0.08 7 1016.0
20260905082400 16 214 1.6 4.8 0.00 0.08 0.08 7 1016.0
20260905080647 16 222 4.8 9.7 0.00 0.08 0.08 7 1015.8
20260905075041 15 270 3.2 6.4 0.03 0.10 0.08 8 1015.6
20260905073055 15 229 0.0 3.2 0.05 0.13 0.08 8 1015.5
20260905071255 15 248 1.6 3.2 0.05 0.13 0.08 8 1015.4
20260905065647 15 222 4.8 8.0 0.05 0.08 0.05 8 1015.5
20260905062407 16 225 1.6 17.7 0.03 0.05 0.03 7 1014.8
20260905054834 17 259 3.2 9.7 0.00 0.00 0.00 7 1014.2
20260905052920 17 245 3.2 6.4 0.00 0.00 0.00 7 1013.8
20260905051055 17 237 1.6 6.4 0.00 0.00 0.00 7 1013.9
20260905045440 17 253 1.6 4.8 0.00 0.00 0.00 7 1013.6
20260905043650 17 284 3.2 12.9 0.00 0.00 0.00 7 1013.3
20260905042047 17 246 1.6 3.2 0.00 0.00 0.00 7 1013.2
20260905040155 17 299 1.6 8.0 0.00 0.00 0.00 7 1012.9
20260905034540 16 211 0.0 8.0 0.00 0.00 0.00 7 1013.2
20260905032634 16 232 1.6 4.8 0.00 0.00 0.00 8 1013.1
20260905030741 16 246 0.0 1.6 0.00 0.00 0.00 8 1013.5
20260905024758 17 226 0.0 1.6 0.00 0.00 0.00 7 1013.3
20260905022846 17 235 0.0 1.6 0.00 0.00 0.00 7 1013.2
20260905021114 17 207 0.0 3.2 0.00 0.00 0.00 7 1013.2
20260905015319 18 248 3.2 6.4 0.00 0.00 0.00 6 1013.1
20260905013549 20 254 3.2 8.0 0.00 0.00 0.00 6 1012.7
20260905010055 20 328 1.6 3.2 0.00 0.00 0.00 6 1011.7
20260905004329 20 131 3.2 4.8 0.00 0.00 0.00 6 1011.6
20260905002415 21 220 0.0 3.2 0.00 0.00 0.00 6 1010.8
20260905000454 22 259 1.6 3.2 0.00 0.00 0.00 5 1009.8
20260904234749 24 214 3.2 4.8 0.00 0.00 0.00 5 1009.3
20260904233047 24 286 4.8 8.0 0.00 0.00 0.00 5 1008.7
20260904231347 24 346 3.2 9.7 0.00 0.00 0.00 5 1008.9
20260904225421 24 263 1.6 4.8 0.00 0.00 0.00 5 1008.7
20260904223759 24 265 1.6 4.8 0.00 0.00 0.00 5 1008.8